User: anonymous   Login
Location: Unspecified
(0.0000°N, 0.0000°E)
Time: 00:00:05
(UTC+00:00)
Language:

OPTUS D1 - Orbit

View from above orbital plane
View from above orbital plane
View from above satellite
View from above satellite

Ground track
Ground track

The orbit data is extracted from the following two-line orbital elements,

1 29495U 06043B   16149.63238699 -.00000115  00000-0  00000+0 0  9996
2 29495   0.0215 357.3285 0003278  72.2960 204.6375  1.00271301 35323
Epoch (UTC): 28 May 2016 15:10:38
Eccentricity: 0.0003278
inclination: 0.0215°
perigee height: 35772 km
apogee height: 35800 km
right ascension of ascending node: 357.3285°
argument of perigee: 72.2960°
revolutions per day: 1.00271301
mean anomaly at epoch: 204.6375°
orbit number at epoch: 3532

The dashed part of the orbit path shows where the satellite is in the earth's shadow,  

DLR